Simultaneous Nadir Overpasses (SNOs) Predictions

Prediction of SNOs between GOES-14 and AQUA Satellite Orbit:

Table of predicted SNOs for the next 14.0 days since TLE Epoch: 3/25/2023
Index Date Time (GOES-14) GOES-14 Lat,Lon AQUA Lat,Lon Distance(km) Time Diff (sec)
1 03/25/2023 08:50:36 0.14,-107.99 -0.17,-106.45 174.41 80
2 03/25/2023 21:11:38 -0.15,-108.01 -0.89,-111.55 402.28 80
3 03/27/2023 20:57:58 -0.15,-108.02 -0.16,-108.22 21.65 80
4 03/29/2023 20:46:56 -0.16,-108.04 0.53,-104.88 359.92 80
5 03/30/2023 09:07:48 0.16,-108.03 0.53,-109.93 215.79 80
6 04/01/2023 08:51:24 0.16,-108.04 -0.13,-106.58 166.13 80
7 04/01/2023 21:12:25 -0.16,-108.05 -0.92,-111.67 411.54 80
8 04/03/2023 20:58:40 -0.17,-108.07 -0.21,-108.32 28.32 80
9 04/05/2023 20:47:34 -0.17,-108.09 0.51,-104.96 355.44 80
10 04/06/2023 09:08:24 0.17,-108.09 0.55,-110.02 218.27 80
